Jackson, Tennessee, United States (38301)
Lat: 35.61N, Lon: 88.81W
Wx Zone: TNZ052
Local Info
Past Weather Observations for Tuesday, August 26, 2014

NOTE: This archive is for the closest National Weather Service station to Jackson. Information may differ from the station used for current weather conditions.

Click here for Long-term Archive

Time Weather Temperature Dewpoint Humidity Pressure Winds Precip Visibility
23:53
Clear
73°F / 23°C 72°F / 22°C 94% 30.06 in
(1018 mb)
Calm - 7SM
22:53
Clear
Fog And Mist
73°F / 23°C 72°F / 22°C 94% 30.06 in
(1018 mb)
Calm - 5SM
21:53
Clear
75°F / 24°C 73°F / 23°C 94% 30.09 in
(1019 mb)
Calm - 7SM
20:53
Clear
75°F / 24°C 72°F / 22°C 89% 30.06 in
(1018 mb)
Calm - 9SM
19:53
Partly Cloudy
79°F / 26°C 73°F / 23°C 84% 30.06 in
(1018 mb)
Calm - 10SM
18:53
Clear
79°F / 26°C 75°F / 24°C 89% 30.06 in
(1018 mb)
Calm - 10SM
17:53
Clear
82°F / 28°C 73°F / 23°C 74% 30.04 in
(1017 mb)
SSE 3.5 mph
(SSE 6 kph)
- 10SM
16:53
Clear
88°F / 31°C 72°F / 22°C 59% 30.04 in
(1017 mb)
Calm - 10SM
15:53
Partly Cloudy
88°F / 31°C 72°F / 22°C 59% 30.04 in
(1017 mb)
S 3.5 mph
(S 6 kph)
- 10SM
14:53
Mostly Cloudy
88°F / 31°C 73°F / 23°C 62% 30.06 in
(1018 mb)
Variable 3.5 mph
(Variable 6 kph)
- 10SM
13:53
Overcast
88°F / 31°C 72°F / 22°C 59% 30.06 in
(1018 mb)
Calm - 10SM
12:53
Mostly Cloudy
86°F / 30°C 72°F / 22°C 62% 30.09 in
(1019 mb)
Calm - 10SM
11:53
Mostly Cloudy
84°F / 29°C 70°F / 21°C 62% 30.12 in
(1020 mb)
Variable 3.5 mph
(Variable 6 kph)
- 10SM
10:53
Mostly Cloudy
82°F / 28°C 70°F / 21°C 66% 30.12 in
(1020 mb)
SW 3.5 mph
(SW 6 kph)
- 10SM
09:53
Mostly Cloudy
81°F / 27°C 72°F / 22°C 74% 30.12 in
(1020 mb)
Calm - 10SM
08:53
Mostly Cloudy
79°F / 26°C 72°F / 22°C 79% 30.15 in
(1021 mb)
S 4.6 mph
(S 7 kph)
0.01 in
(0.25 mm)
10SM
07:53
Overcast
77°F / 25°C 72°F / 22°C 83% 30.12 in
(1020 mb)
Calm - 10SM
06:53
Overcast
75°F / 24°C 72°F / 22°C 89% 30.12 in
(1020 mb)
Calm - 8SM
05:53
Mostly Cloudy
73°F / 23°C 72°F / 22°C 94% 30.09 in
(1019 mb)
Calm - 8SM
04:53
Partly Cloudy
73°F / 23°C 72°F / 22°C 94% 30.06 in
(1018 mb)
Calm - 9SM
04:00
Clear
Fog And Mist
73°F / 23°C 72°F / 22°C 94% 30.04 in
(1017 mb)
Calm - 3SM
03:53
Clear
Fog And Mist
72°F / 22°C 72°F / 22°C 100% 30.04 in
(1017 mb)
Calm - 1SM
03:19
Partly Cloudy
Fog And Mist
73°F / 23°C 72°F / 22°C 94% 30.04 in
(1017 mb)
Calm - 1 1/4SM
03:00
Obscured
Fog
73°F / 23°C 72°F / 22°C 94% 30.04 in
(1017 mb)
Calm - 1/2SM
02:53
Clear
Fog
73°F / 23°C 72°F / 22°C 94% 30.04 in
(1017 mb)
Calm - 1/2SM
02:09
Clear
Fog And Mist
73°F / 23°C 72°F / 22°C 94% 30.04 in
(1017 mb)
Calm - 3/4SM
02:00
Clear
Fog And Mist
73°F / 23°C 72°F / 22°C 94% 30.04 in
(1017 mb)
Calm - 2 1/2SM
01:53
Clear
Fog And Mist
73°F / 23°C 72°F / 22°C 94% 30.04 in
(1017 mb)
Calm - 1 3/4SM
01:49
Clear
Fog And Mist
73°F / 23°C 72°F / 22°C 94% 30.04 in
(1017 mb)
Calm - 1 3/4SM
01:31
Clear
Fog And Mist
73°F / 23°C 72°F / 22°C 94% 30.04 in
(1017 mb)
Calm - 2 1/2SM
01:15
Clear
Fog And Mist
73°F / 23°C 72°F / 22°C 94% 30.04 in
(1017 mb)
Calm - 3SM
01:08
Clear
Fog And Mist
73°F / 23°C 72°F / 22°C 94% 30.04 in
(1017 mb)
Calm - 2 1/2SM
00:53
Clear
Fog And Mist
73°F / 23°C 72°F / 22°C 94% 30.04 in
(1017 mb)
Calm - 5SM
Time Weather Temperature Dewpoint Humidity Pressure Winds Precip Visibility


Weather for websites

WeatherForYou.com, LLC is not responsible for any damages or problems caused by this service. Current weather conditions are obtained from the closest station including government and personal stations which may have varying degrees of accuracy. Weather forecasts are derived from the NOAA NDFD. Like all things, this site belongs to Jesus Christ... He just trusts me to maintain it. If you have any questions or comments email webmaster@weatherforyou.com

Copyright © 2014, WeatherForYou.com LLC. All rights reserved.